Location: Altleiningen
(49.5078°N, 8.0741°E)
Time: 05:14:29
(UTC+00:00)

USA 308 - Pass Details

Date: 03 March 2021
Orbit: 571 x 574 km, 54.0° (Epoch: 10 April)

Event Time Altitude Azimuth Distance (km) Brightness Sun altitude
Rises 20:07:05 0° 292° (WNW) 2,782 7.7 -28.2°
Reaches altitude 10° 20:09:22 10° 296° (WNW) 1,882 6.5 -28.6°
Enters shadow 20:12:07 36° 314° (NW) 911 4.3 -29.0°
